Home   Weather   Fairfield   Past weeks
Flag for USA

Past Weather in Fairfield, Pennsylvania, USA — Yesterday and Last 2 Weeks

Now
52 °F

Clear.


Feels Like: 51 °F
Forecast: 69 / 36 °F
Wind: 5 mph from Southeast

Location: Allegheny County Airport
Current Time: Sep 22, 2020 at 12:31:02 am
Latest Report: Sep 21, 2020 at 11:53 pm
Visibility: 10 mi
Pressure30.36 "Hg
Humidity: 57%
Dew Point: 37 °F
Location of FairfieldLocation

Past Weather in Fairfield — Graph

°F

Fairfield Temperature Yesterday

Maximum temperature yesterday: 66 °F (at 3:53 pm)
Minimum temperature yesterday: 44 °F (at 6:53 am)
Average temperature yesterday: 55 °F

High & Low Weather Summary for the Past Weeks

 TemperatureHumidityPressure
High86 °F (Sep 10, 3:53 pm)97% (Sep 9, 4:53 am)30.56 "Hg (Sep 9, 4:53 am)
Low41 °F (Sep 19, 5:53 am)31% (Sep 19, 4:53 pm)29.96 "Hg (Sep 7, 4:53 am)
Average65 °F70%30.19 "Hg
* Reported Sep 6 10:53 pm — Sep 21 10:53 pm, Fairfield. Weather by CustomWeather, © 2020

Note: Actual official high and low records may vary slightly from our data, if they occured in-between our weather recording intervals... More about our weather records

Fairfield Weather History for the Previous 24 Hours

Scroll right to see more
 ConditionsComfort  
Time TempWeatherWind HumidityBarometerVisibility
10:53 pm
Mon, Sep 21
55 °FClear.7 mph51%30.37 "Hg10 mi
9:53 pm56 °FClear.6 mph51%30.38 "Hg10 mi
8:53 pm56 °FClear.6 mph51%30.39 "Hg10 mi
7:53 pm60 °FClear.5 mph44%30.39 "Hg10 mi
6:53 pm62 °FSunny.5 mph39%30.39 "Hg10 mi
5:53 pm66 °FSunny.6 mph36%30.40 "Hg10 mi
4:53 pm66 °FSunny.6 mph33%30.42 "Hg10 mi
3:53 pm66 °FSunny.7 mph33%30.44 "Hg10 mi
2:53 pm65 °FSunny.6 mph36%30.47 "Hg10 mi
1:53 pm63 °FSunny.6 mph37%30.50 "Hg10 mi
12:53 pm62 °FSunny.6 mph39%30.53 "Hg10 mi
11:53 am58 °FSunny.5 mph46%30.55 "Hg10 mi
10:53 am56 °FSunny.8 mph47%30.56 "Hg10 mi
9:53 am53 °FSunny.5 mph55%30.56 "Hg10 mi
8:53 am49 °FSunny.5 mph64%30.55 "Hg10 mi
7:53 am45 °FSunny.6 mph71%30.54 "Hg10 mi
6:53 am44 °FClear.6 mph68%30.53 "Hg10 mi
5:53 am45 °FClear.5 mph68%30.53 "Hg10 mi
4:53 am46 °FClear.5 mph66%30.51 "Hg10 mi
3:53 am47 °FClear.6 mph66%30.50 "Hg10 mi
2:53 am48 °FClear.No wind63%30.50 "Hg10 mi
1:53 am50 °FClear.5 mph57%30.50 "Hg10 mi
12:53 am51 °FClear.3 mph54%30.50 "Hg10 mi
Weather by CustomWeather, © 2020

See weather overview